Hourly Data Report for October 01, 2017

All times are specified in Local Standard Time (LST). Add 1 hour to adjust for Daylight Saving Time where and when it is observed.

SUMMERLAND CS
BRITISH COLUMBIA

49°33'45.200" N
119°38'55.300" W
454.20 m
112G8L1
71768
WUS

Download Data

Hourly Data (October 2017)
Hourly Data Report for October 1, 2017
Temp Definition
°C
Dew Point Temp Definition
°C
Rel Hum Definition
%
Wind Dir Definition
10's deg

Wind Spd Definition
km/h
Visibility Definition
km
Stn Press Definition
kPa
Hmdx Definition


Wind Chill Definition


Weather Definition


TIME
00:00 10.5 2.6 58 31 9   96.17     LegendNANA
01:00 10.5 2.3 57 28 6   96.19     LegendNANA
02:00 9.9 2.3 59 28 8   96.21     LegendNANA
03:00 9.3 2.3 61 29 7   96.22     LegendNANA
04:00 9.4 3.5 67 28 6   96.25     LegendNANA
05:00 10.3 2.6 59 30 10   96.25     LegendNANA
06:00 9.7 3.1 64 29 6   96.29     LegendNANA
07:00 10.0 2.8 61 28 7   96.33     LegendNANA
08:00 11.3 2.3 54 30 5   96.34     LegendNANA
09:00 12.0 1.5 49 36 7   96.34     LegendNANA
10:00 12.2 1.2 47 33 12   96.36     LegendNANA
11:00 15.9 0.8 36 33 11   96.34     LegendNANA
12:00 13.0 1.1 44 34 19   96.37     LegendNANA
13:00 13.4 0.9 42 34 17   96.39     LegendNANA
14:00 13.6 -0.7 37 33 13   96.38     LegendNANA
15:00 13.8 -0.6 37 35 9   96.36     LegendNANA
16:00 14.3 -0.5 36 34 10   96.35     LegendNANA
17:00 13.0 -0.2 40 33 13   96.37     LegendNANA
18:00 12.2 -0.2 42 31 11   96.42     LegendNANA
19:00 11.9 -0.6 42 32 10   96.48     LegendNANA
20:00 11.4 0.0 45 33 8   96.51     LegendNANA
21:00 11.2 0.2 47 31 11   96.51     LegendNANA
22:00 10.0 0.5 52 29 11   96.51     LegendNANA
23:00 10.0 0.7 52 29 9   96.52     LegendNANA

Notes on Data Quality.

Legend

  • E = Estimated
  • M = Missing
  • NA = Not Available
  • ‡ = Partner data that is not subject to review by the National Climate Archives
Date modified: